Delray Beach, FL

7:45 PM EDT on April 28, 2017 (GMT -0400)
Lake Ida - Garden House | | Change Station

Elev 0 ft 26.48 °N, 80.07 °W | Updated 24 seconds ago

Partly Cloudy
Partly Cloudy
79.3 °F
Feels Like 82 °F
N
2.0
Wind Variable Wind from ESE

Today
High -- | Low -- °F
--% Chance of Precip.
Yesterday
High -- | Low -- °F
Precip. -- in
Pressure 30.07 in
Visibility 9.0 miles
Clouds Scattered Clouds 1800 ft
Scattered Clouds 2400 ft
Heat Index 82 °F
Dew Point 71 °F
Humidity 76%
Rainfall 0.02 in
Snow Depth Not available.
6:44 AM 7:51 PM
Waxing Crescent, 9% visible
METAR KPMP 282253Z 09012KT 9SM SCT018 SCT024 27/23 A3007 RMK AO2 SLP183 T02720228
Pressure 30.07 in
Visibility 9.0 miles
Clouds Scattered Clouds 1800 ft
Scattered Clouds 2400 ft
Heat Index 82 °F
Dew Point 71 °F
Humidity 76%
Rainfall 0.02 in
Snow Depth Not available.
6:44 AM 7:51 PM
Waxing Crescent, 9% visible
METAR KPMP 282253Z 09012KT 9SM SCT018 SCT024 27/23 A3007 RMK AO2 SLP183 T02720228

Get Severe Weather Alerts

Thanks for signing up!

Be on the lookout for a verification email in your inbox.

You'll start receiving the daily forecast at 8 AM.

×

10-Day Weather Forecast

Almanac

Astronomy

Apr. 28, 2017 Rise Set
Actual Time
Civil Twilight
Nautical Twilight
Astronomical Twilight
Moon
Length of Visible Light
Length of Day
Tomorrow will be .
, % of the Moon is Illuminated

Today's Extremes

State Highs State Lows

Community

WunderPhotos

WunderBlog® & News

Nearby

Air Quality

  Air Quality AQ Index Pollutant
Not available.

Snow Depth

Station Depth Elevation

Earthquake Activity

City Distance Mag. Time & Date
Minimum magnitude displayed is 2.5.

Coastal Water Temperatures

Place Temperature

Stations

Nearby Weather Stations

Station Location Temp. Windchill Dew Point Humidity Wind Precip. Elev Updated Type
                   

Watches & Warnings

There are currently no watches in effect.